Location: Dos Palmas
(32.4468°N, 116.8732°W)
Time: 05:29:33
(UTC+00:00)

NPP - Pass Details

Date: 20 June 2021
Orbit: 826 x 828 km, 98.7° (Epoch: 29 July)

Event Time Altitude Azimuth Distance (km) Brightness Sun altitude
Rises 09:55:45 0° 5° (N) 3,370 7.8 -26.5°
Reaches altitude 10° 09:58:11 10° 360° (N) 2,433 6.8 -26.2°
Maximum altitude 10:03:19 47° 288° (WNW) 1,086 4.1 -25.6°
Enters shadow 10:03:26 47° 283° (WNW) 1,088 4.0 -25.6°
